Angleton, TX

12:05 AM CDT on April 25, 2018 (GMT -0500)
Brazoria County

Weather History for KLBX - December, 2012

Change the Weather History Date:

Monday, December 17, 2012

  Actual Average Record
Temperature  
Mean Temperature 59 °F -  
Max Temperature 72 °F 62 °F 81 °F (2016)
Min Temperature 45 °F 43 °F 26 °F (2000)
Degree Days  
Heating Degree Days 6    
Growing Degree Days 9 (Base 50)    
Moisture  
Dew Point 50 °F    
Average Humidity 74    
Maximum Humidity 100    
Minimum Humidity 25    
Precipitation  
Precipitation 0.00 in - - ()
Sea Level Pressure  
Sea Level Pressure 29.88 in    
Wind  
Wind Speed 2 mph (NW)    
Max Wind Speed 13 mph    
Max Gust Speed 21 mph    
Visibility 7 miles    
Events Fog    
Averages and records for this station are not official NWS values.
T = Trace of Precipitation, MM = Missing Value Source: NWS Daily Summary

Daily Weather History Graph

Daily Weather History Graph

Search for Another Location

Airport or City:

Astronomy

Dec. 17, 2012 Rise Set
Actual Time 7:09 AM CST 5:26 PM CST
Civil Twilight 6:43 AM CST 5:53 PM CST
Nautical Twilight 6:13 AM CST 6:22 PM CST
Astronomical Twilight 5:44 AM CST 6:51 PM CST
Moon 10:37 AM CST (12/17) 10:28 PM CST (12/17)
Length of Visible Light 11h 09m
Length of Day
10h 17m
Waxing Crescent, 25% of the Moon is Illuminated
Dec 17
Waxing Crescent
Dec 19
First Quarter
Dec 28
Full
Jan 4
Last Quarter
Jan 11
New

Hourly Weather History & Observations

Time (CST) Temp. Dew Point Humidity Pressure Visibility Wind Dir Wind Speed Gust Speed Precip Events Conditions
12:07 AM 62.6 °F 62.6 °F 100% 29.83 in 0.2 mi Calm Calm - N/A Fog Fog
12:26 AM 62.6 °F 60.8 °F 94% 29.82 in 0.2 mi Calm Calm - N/A Fog Fog
12:53 AM 62.1 °F 61.0 °F 96% 29.83 in 0.2 mi Calm Calm - N/A Fog Fog
1:09 AM 62.6 °F 60.8 °F 94% 29.83 in 0.5 mi Calm Calm - N/A Fog Fog
1:20 AM 62.6 °F 60.8 °F 94% 29.83 in 0.2 mi NNW 3.5 mph - N/A Fog Fog
1:37 AM 62.6 °F 62.6 °F 100% 29.85 in 0.8 mi WNW 3.5 mph - N/A   Mist
1:43 AM 62.6 °F 62.6 °F 100% 29.85 in 2.5 mi WNW 3.5 mph - N/A   Overcast
1:50 AM 62.6 °F 62.6 °F 100% 29.85 in 5.0 mi NW 3.5 mph - N/A   Mostly Cloudy
1:53 AM 63.0 °F 62.1 °F 97% 29.85 in 6.0 mi Calm Calm - N/A   Mostly Cloudy
2:01 AM 62.6 °F 62.6 °F 100% 29.84 in 8.0 mi Calm Calm - N/A   Scattered Clouds
2:53 AM 60.1 °F 59.0 °F 96% 29.84 in 10.0 mi Calm Calm - N/A   Clear
3:53 AM 60.1 °F 57.0 °F 90% 29.85 in 10.0 mi Calm Calm - N/A   Clear
4:53 AM 61.0 °F 54.0 °F 78% 29.87 in 10.0 mi NW 6.9 mph - N/A   Clear
6:53 AM 57.9 °F 52.0 °F 81% 29.88 in 10.0 mi Calm Calm - N/A   Clear
7:53 AM 59.0 °F 48.9 °F 69% 29.92 in 10.0 mi NW 6.9 mph - N/A   Clear
8:53 AM 59.0 °F 46.9 °F 64% 29.94 in 10.0 mi NW 8.1 mph - N/A   Clear
9:53 AM 61.0 °F 43.0 °F 52% 29.94 in 10.0 mi NW 6.9 mph - N/A   Clear
10:53 AM 66.9 °F 41.0 °F 39% 29.94 in 10.0 mi NNW 11.5 mph 19.6 mph N/A   Clear
11:53 AM 69.1 °F 37.0 °F 31% 29.93 in 10.0 mi NW 12.7 mph 20.7 mph N/A   Clear
12:53 PM 70.0 °F 37.0 °F 30% 29.90 in 10.0 mi WNW 9.2 mph 18.4 mph N/A   Clear
1:53 PM 72.0 °F 37.9 °F 29% 29.86 in 10.0 mi NW 6.9 mph - N/A   Clear
2:53 PM 72.0 °F 34.0 °F 25% 29.86 in 10.0 mi West 6.9 mph - N/A   Clear
3:53 PM 72.0 °F 34.0 °F 25% 29.86 in 10.0 mi NW 6.9 mph - N/A   Clear
6:53 PM 55.0 °F 41.0 °F 59% 29.91 in 10.0 mi Calm Calm - N/A   Clear
7:53 PM 50.0 °F 42.1 °F 74% 29.91 in 10.0 mi Calm Calm - N/A   Clear
8:53 PM 48.9 °F 43.0 °F 80% 29.92 in 10.0 mi Calm Calm - N/A   Clear
9:53 PM 46.9 °F 43.0 °F 86% 29.93 in 10.0 mi Calm Calm - N/A   Clear
10:53 PM 46.0 °F 42.1 °F 86% 29.94 in 10.0 mi Calm Calm - N/A   Clear
11:53 PM 45.0 °F 42.1 °F 90% 29.95 in 10.0 mi Calm Calm - N/A   Clear